This demonstration page uses our WeatherBlox Daily Observations layout. Learn more.

Left ArrowRight Arrow

Hourly Observations for August 20, 2022

Temp ( °F °C ) Dew Point ( °F °C ) Humidity (%) Winds ( mph kmh ) Pressure ( in mb ) Visibility ( mi km ) Precip ( " mm )
12:53 am 00:53 Mostly Cloudy 74 23.3 72 22.2 94 94 E 3 6 30.07 1018 10 16 0.00 0.00
1:03 am 01:03 Mostly Cloudy 74 23.3 72 22.2 94 94 SE 3 6 30.07 1018 10 16 0.00 0.00
1:22 am 01:22 Cloudy 74 23.3 72 22.2 94 94 Calm 30.07 1018 10 16 0.00 0.00
1:53 am 01:53 Cloudy 74 23.3 72 22.2 94 94 S 3 6 30.07 1018 10 16 0.00 0.00
2:01 am 02:01 Cloudy 74 23.3 72 22.2 94 94 WSW 3 6 30.07 1018 10 16 0.00 0.00
2:13 am 02:13 Cloudy 74 23.3 72 22.2 94 94 Calm 30.07 1018 10 16 0.00 0.00
2:32 am 02:32 Cloudy 74 23.3 72 22.2 94 94 Calm 30.07 1018 10 16 0.00 0.00
2:53 am 02:53 Mostly Cloudy 73 22.8 72 22.2 96 96 Calm 30.07 1018 10 16 0.00 0.00
3:15 am 03:15 Mostly Cloudy 73 22.8 72 22.2 96 96 Calm 30.06 1018 10 16 0.00 0.00
3:53 am 03:53 Mostly Cloudy 73 22.8 72 22.2 96 96 Calm 30.07 1018 9 14 0.00 0.00
4:11 am 04:11 Mostly Cloudy 73 22.8 72 22.2 96 96 ENE 3 6 30.07 1018 10 16 0.00 0.00
4:24 am 04:24 Partly Cloudy 72 22.2 71 21.7 97 97 Calm 30.07 1018 8 13 0.00 0.00
4:53 am 04:53 Mostly Cloudy 73 22.8 72 22.2 96 96 Calm 30.08 1019 10 16 0.00 0.00
5:06 am 05:06 Mostly Cloudy 73 22.8 72 22.2 96 96 Calm 30.07 1018 10 16 0.00 0.00
5:17 am 05:17 Mostly Cloudy 73 22.8 72 22.2 96 96 Calm 30.07 1018 10 16 0.00 0.00
5:30 am 05:30 Mostly Cloudy with Mist and Fog 71 21.7 70 21.1 96 96 Calm 30.07 1018 1 2 0.00 0.00
5:49 am 05:49 Mostly Cloudy with Mist and Fog 72 22 70 21 94 94 Calm 30.08 1019 3 4 0.00 0.00
5:53 am 05:53 Mostly Cloudy with Mist and Fog 72 22.2 71 21.7 97 97 Calm 30.08 1019 5 8 0.00 0.00
6:15 am 06:15 Cloudy 72 22.2 71 21.7 97 97 Calm 30.08 1019 10 16 0.00 0.00
6:53 am 06:53 Cloudy 72 22.2 71 21.7 97 97 Calm 30.10 1019 10 16 0.00 0.00
7:06 am 07:06 Mostly Cloudy with Mist and Fog 71 21.7 70 21.1 96 96 Calm 30.10 1019 6 10 0.00 0.00
7:19 am 07:19 Partly Cloudy 71 21.7 70 21.1 96 96 ENE 3 6 30.10 1019 8 13 0.00 0.00
7:53 am 07:53 Mostly Sunny 72 22.2 71 21.7 97 97 Calm 30.12 1020 8 13 0.00 0.00
8:53 am 08:53 Sunny 75 23.9 72 22.2 90 90 S 6 9 30.13 1020 10 16 0.00 0.00
9:53 am 09:53 Partly Cloudy 76 24.4 71 21.7 85 85 SW 3 6 30.15 1021 10 16 0.00 0.00
10:14 am 10:14 Mostly Cloudy 78 25.6 72 22.2 82 82 Calm 30.14 1021 10 16 0.00 0.00
10:38 am 10:38 Mostly Cloudy 78 25.6 70 21.1 76 76 Calm 30.14 1021 10 16 0.00 0.00
10:53 am 10:53 Partly Cloudy 80 26.7 71 21.7 74 74 WNW 3 6 30.15 1021 10 16 0.00 0.00
11:14 am 11:14 Mostly Cloudy 79 26.1 71 21.7 77 77 W 3 6 30.14 1021 10 16 0.00 0.00
11:53 am 11:53 Mostly Cloudy 80 26.7 71 21.7 74 74 SW 3 6 30.15 1021 10 16 0.00 0.00
12:53 pm 12:53 Mostly Cloudy with Nearby Thunderstorms 82 27.8 72 22.2 72 72 VRB 5 7 30.14 1021 10 16 0.00 0.00
1:36 pm 13:36 Mostly Cloudy 82 27.8 71 21.7 69 69 VRB 7 11 30.11 1020 10 16 0.00 0.00
1:53 pm 13:53 Mostly Cloudy 84 28.9 72 22.2 67 67 SSW 9 15 30.12 1020 10 16 0.00 0.00
2:04 pm 14:04 Mostly Cloudy 83 28.3 70 21.1 65 65 SW 6 9 30.09 1019 10 16 0.00 0.00
2:53 pm 14:53 Mostly Cloudy 84 28.9 69 20.6 61 61 SW 6 9 30.10 1019 10 16 0.00 0.00
3:53 pm 15:53 Partly Cloudy 84 28.9 70 21.1 63 63 WSW 5 7 30.09 1019 10 16 0.00 0.00
4:53 pm 16:53 Sunny 83 28.3 70 21.1 65 65 SW 5 7 30.08 1019 10 16 0.00 0.00
5:53 pm 17:53 Mostly Cloudy 84 28.9 71 21.7 65 65 VRB 5 7 30.07 1018 10 16 0.00 0.00
6:53 pm 18:53 Sunny 83 28.3 71 21.7 67 67 Calm 30.07 1018 10 16 0.00 0.00
7:53 pm 19:53 Mostly Sunny 82 27.8 72 22.2 72 72 SSW 3 6 30.06 1018 10 16 0.00 0.00
8:53 pm 20:53 Partly Cloudy 79 26.1 73 22.8 82 82 Calm 30.08 1019 10 16 0.00 0.00
9:53 pm 21:53 Clear 76 24.4 74 23.3 94 94 Calm 30.09 1019 10 16 0.00 0.00
10:53 pm 22:53 Cloudy 76 24.4 74 23.3 94 94 ENE 3 6 30.09 1019 10 16 0.00 0.00
11:37 pm 23:37 Cloudy with Nearby Thunderstorms 75 23.9 73 22.8 94 94 SW 24 39 30.12 1020 10 16 0.00 0.00
11:53 pm 23:53 Cloudy with Nearby Thunderstorms 71 21.7 69 20.6 93 93 SW 12 19 30.12 1020 2 3 0.15 3.81
11:57 pm 23:57 Cloudy with Nearby Thunderstorms 71 21.7 69 20.6 93 93 SSW 13 20 30.12 1020 2 3 0.03 0.76

Powered by AerisWeather